Weather History for KCZZ - May, 2013

Change the Weather History Date:

Wednesday, May 8, 2013

  Actual Average Record
Temperature  
Mean Temperature 51 °F 60 °F  
Max Temperature 63 °F 78 °F 93 °F (1989)
Min Temperature 39 °F 41 °F 27 °F (1965)
Degree Days  
Heating Degree Days 14 6  
Month to date heating degree days 70 52  
Since 1 July heating degree days 2876 2820  
Cooling Degree Days 0 1  
Month to date cooling degree days 0 3  
Year to date cooling degree days 1 6  
Moisture  
Dew Point 43 °F    
Average Humidity 73    
Maximum Humidity 93    
Minimum Humidity 52    
Precipitation  
Precipitation 0.00 in 0.01 in 0.57 in (2015)
Month to date precipitation 0.33 0.09  
Year to date precipitation 4.78 9.95  
Since 1 July precipitation 9.25  
Snow  
Snow 0.00 in - - ()
Month to date snowfall 0.0  
Year to date snowfall 0.0  
Since 1 July snowfall 0.0  
Snow Depth 0.00 in    
Sea Level Pressure  
Sea Level Pressure 30.01 in    
Wind  
Wind Speed 6 mph (West)    
Max Wind Speed 16 mph    
Max Gust Speed 21 mph    
T = Trace of Precipitation, MM = Missing Value Source: NWS Daily Summary

Daily Weather History Graph

Daily Weather History Graph

Search for Another Location

Airport or City:

Trip Planner

Search our weather history database for the weather conditions in past years. The results will help you decide how hot, cold, wet, or windy it might be!

Date:

Astronomy

May. 08, 2013 Rise Set
Actual Time 5:52 AM PDT 7:32 PM PDT
Civil Twilight 5:25 AM PDT 7:59 PM PDT
Nautical Twilight 4:53 AM PDT 8:31 PM PDT
Astronomical Twilight 4:19 AM PDT 9:05 PM PDT
Moon 4:59 AM PDT (5/8) 6:37 PM PDT (5/8)
Length of Visible Light 14h 33m
Length of Day
13h 40m
Waning Crescent, 1% of the Moon is Illuminated
May 8
Waning Crescent
May 9
New
May 17
First Quarter
May 24
Full
May 31
Last Quarter

Hourly Weather History & Observations

Time (PDT) Temp. Windchill Dew Point Humidity Pressure Visibility Wind Dir Wind Speed Gust Speed Precip Events Conditions
12:52 AM 45.0 °F - 41.0 °F 86% 30.02 in - Calm Calm - N/A   Unknown
1:52 AM 39.9 °F 37.8 °F 37.9 °F 93% 30.02 in - NE 3.5 mph - N/A   Unknown
2:52 AM 39.0 °F 36.8 °F 37.0 °F 93% 30.01 in - ENE 3.5 mph - N/A   Unknown
3:52 AM 41.0 °F - 37.9 °F 89% 30.01 in - Calm Calm - N/A   Unknown
4:52 AM 42.1 °F - 39.9 °F 92% 30.00 in - Calm Calm - N/A   Unknown
5:52 AM 41.0 °F - 37.9 °F 89% 30.01 in - Calm Calm - N/A   Unknown
6:52 AM 42.1 °F - 39.9 °F 92% 30.01 in - Calm Calm - N/A   Unknown
7:52 AM 46.9 °F - 45.0 °F 93% 30.03 in - SW 8.1 mph - N/A   Unknown
8:52 AM 50.0 °F - 45.0 °F 83% 30.03 in - SSW 5.8 mph - N/A   Unknown
9:52 AM 52.0 °F - 44.1 °F 74% 30.04 in - West 6.9 mph - N/A   Unknown
10:52 AM 53.1 °F - 46.0 °F 77% 30.04 in - Variable 3.5 mph - N/A   Unknown
11:52 AM 57.9 °F - 45.0 °F 62% 30.01 in - WSW 12.7 mph - N/A   Unknown
12:52 PM 62.1 °F - 45.0 °F 53% 30.00 in - West 13.8 mph 19.6 mph N/A   Unknown
1:52 PM 62.1 °F - 45.0 °F 53% 30.00 in - West 10.4 mph 17.3 mph N/A   Unknown
2:52 PM 62.1 °F - 45.0 °F 53% 29.99 in - West 12.7 mph 16.1 mph N/A   Unknown
3:52 PM 61.0 °F - 46.0 °F 58% 29.99 in - WNW 13.8 mph 20.7 mph N/A   Unknown
4:52 PM 59.0 °F - 48.0 °F 67% 29.99 in - WNW 13.8 mph - N/A   Unknown
5:52 PM 57.0 °F - 46.0 °F 67% 29.99 in - WNW 17.3 mph 20.7 mph N/A   Unknown
6:52 PM 55.0 °F - 45.0 °F 69% 30.00 in - WNW 13.8 mph - N/A   Unknown
7:52 PM 53.1 °F - 44.1 °F 71% 30.01 in - WNW 6.9 mph - N/A   Unknown
8:52 PM 50.0 °F - 44.1 °F 80% 30.01 in - WSW 5.8 mph - N/A   Unknown
9:52 PM 48.9 °F - 43.0 °F 80% 30.03 in - Calm Calm - N/A   Unknown
10:52 PM 45.0 °F - 41.0 °F 86% 30.04 in - Calm Calm - N/A   Unknown
11:52 PM 43.0 °F - 39.9 °F 89% 30.04 in - Calm Calm - N/A   Unknown